Meteo Giornale » Osservazioni meteo Stati Uniti (USA) » Livermore
ore: 12:53 - Osservazioni Meteo Livermore
Lat. 37° 41' N Lon. 121° 48' W Alt. 121 metri s.l.m.
21 °C
Sereno
Temp. 24 Ore
15 °C
21 °C
Ovest/Nord-Ovest
20.3 Km/h
Dew point 9 °C
Umidità 46 %
Visibilità 10 Km
Il sole sorge alle ore 06:37
Il sole tramonta alle ore 19:36
| Data e Ora | Cielo e Fenomeni | T °C | DP °C | Um. % | Pres. hPa | Vis. km | Vento km/h | |
|---|---|---|---|---|---|---|---|---|
| Oggi h: 12:53 | Sereno | 21 | 9 | 46 | 1016 | 10 | O/NO 20.3 | |
| Oggi h: 11:53 | Poco Nuvoloso | 21 | 7 | 40 | 1016 | 10 | O/SO 20.3 | |
| Oggi h: 10:53 | Molto Nuvoloso | 19 | 8 | 48 | 1016 | 10 | O 16.7 | |
| Oggi h: 09:53 | Molto Nuvoloso | 19 | 8 | 48 | 1016 | 10 | O/SO 16.7 | |
| Oggi h: 08:53 | Coperto | 18 | 9 | 55 | 1016 | 10 | SO 16.7 | |
| Oggi h: 07:53 | Molto Nuvoloso | 17 | 9 | 59 | 1015 | 10 | S/SO 16.7 | |
| Oggi h: 06:53 | Molto Nuvoloso | 16 | 9 | 63 | 1014 | 10 | S/SO 16.7 | |
| Oggi h: 05:53 | Coperto | 16 | 9 | 63 | 1014 | 10 | SO 13 | |
| Oggi h: 04:53 | Coperto | 16 | 9 | 63 | 1014 | 10 | S/SO 14.8 | |
| Oggi h: 03:53 | Coperto | 16 | 9 | 63 | 1014 | 10 | SO 20.3 | |
| Oggi h: 03:24 | Coperto | 16 | 9 | 63 | 1014 | 10 | SO 16.7 | |
| Oggi h: 02:53 | Coperto | 16 | 9 | 63 | 1014 | 10 | O/SO 20.3 | |
| Oggi h: 01:53 | Coperto | 16 | 9 | 63 | 1014 | 10 | SO 14.8 | |
| Oggi h: 01:23 | Molto Nuvoloso | 16 | 10 | 67 | 1014 | 10 | SO 14.8 | |
| Oggi h: 01:08 | Nuvoloso | 15 | 9 | 67 | 1014 | 10 | SO 14.8 | |
| Oggi h: 00:53 | Molto Nuvoloso | 15 | 9 | 67 | 1014 | 10 | O/SO 11.1 | |
| Oggi h: 00:44 | Molto Nuvoloso | 15 | 10 | 72 | 1014 | 10 | SO 16.7 | |
| Ieri h: 23:53 | Nuvoloso | 15 | 10 | 72 | 1014 | 10 | O/SO 18.5 | |
| Ieri h: 23:08 | Molto Nuvoloso | 16 | 11 | 72 | 1014 | 10 | O/SO 16.7 | |
| Ieri h: 22:53 | Nuvoloso | 15 | 10 | 72 | 1014 | 10 | O/SO 16.7 | |
| Ieri h: 21:53 | Poco Nuvoloso | 15 | 10 | 72 | 1014 | 10 | O/SO 16.7 | |
| Ieri h: 20:53 | Sereno | 16 | 11 | 72 | 1013 | 10 | O/SO 20.3 | |
| Ieri h: 19:53 | Sereno | 16 | 11 | 72 | 1012 | 10 | O/SO 24 | |
| Ieri h: 18:53 | Sereno | 17 | 11 | 67 | 1012 | 10 | O 27.8 | |
| Ieri h: 17:53 | Sereno | 19 | 11 | 59 | 1012 | 10 | O/NO 27.8 | |
| Ieri h: 16:53 | Sereno | 20 | 11 | 56 | 1012 | 10 | O 29.6 | |
| Ieri h: 15:53 | Sereno | 21 | 11 | 52 | 1012 | 10 | O/NO 27.8 | |
| Ieri h: 14:53 | Sereno | 21 | 11 | 52 | 1013 | 10 | O/NO 27.8 | |
| Ieri h: 13:53 | Sereno | 20 | 11 | 56 | 1014 | 10 | O 29.6 | |



